DL1GFM-6 Weather Reports


Display with metric or nautical units.
time (UTC)temp
F
wind
direction
speed
MPH
gust
MPH
rain 1hr
in
rain 24hr
in
rain mn
in
humidity
%
barometer
mb
20190921063023 40 180 0.0 0.0 0.00 0.00 0.00 77 1015.7
20190921062020 39 265 0.0 1.0 0.00 0.00 0.00 78 1015.8
20190921061017 39 0.0 0.0 0.00 0.00 0.00 78 1015.8
20190921060024 38 0.0 0.0 0.00 0.00 0.00 78 1015.1
20190921055021 38 0.0 0.0 0.00 0.00 0.00 78 1015.1
20190921054017 38 0.0 0.0 0.00 0.00 0.00 77 1014.9
20190921053024 38 0.0 0.0 0.00 0.00 0.00 77 1014.9
20190921052020 38 0.0 0.0 0.00 0.00 0.00 77 1014.7
20190921051017 38 0.0 0.0 0.00 0.00 0.00 77 1014.7
20190921050025 38 0.0 0.0 0.00 0.00 0.00 77 1014.7
20190921045022 38 0.0 0.0 0.00 0.00 0.00 77 1014.8
20190921044018 39 268 0.0 0.0 0.00 0.00 0.00 77 1015.0
20190921043025 38 270 0.0 0.0 0.00 0.00 0.00 76 1015.0
20190921042020 39 255 0.0 1.0 0.00 0.00 0.00 76 1015.2
20190921041026 39 270 0.0 1.0 0.00 0.00 0.00 76 1015.2
20190921040023 39 0.0 0.0 0.00 0.00 0.00 76 1015.2
20190921035019 39 0.0 0.0 0.00 0.00 0.00 76 1015.2
20190921034026 39 0.0 0.0 0.00 0.00 0.00 75 1015.2
20190921033022 39 0.0 0.0 0.00 0.00 0.00 75 1015.2
20190921032018 39 259 0.0 0.0 0.00 0.00 0.00 75 1015.3
20190921031016 39 271 0.0 1.0 0.00 0.00 0.00 75 1015.3
20190921030025 40 275 0.0 0.0 0.00 0.00 0.00 75 1015.6
20190921025026 39 237 0.0 1.0 0.00 0.00 0.00 75 1015.6
20190921024018 40 0.0 0.0 0.00 0.00 0.00 74 1016.2
20190921023026 40 0.0 0.0 0.00 0.00 0.00 74 1016.2
20190921022022 40 0.0 0.0 0.00 0.00 0.00 74 1016.1
20190921021016 40 280 0.0 0.0 0.00 0.00 0.00 73 1016.1
20190921020023 40 261 0.0 1.0 0.00 0.00 0.00 73 1015.9
20190921015019 40 0.0 0.0 0.00 0.00 0.00 73 1015.9
20190921014025 41 0.0 0.0 0.00 0.00 0.00 73 1016.1
20190921013022 41 0.0 0.0 0.00 0.00 0.00 73 1016.1
20190921012019 41 0.0 0.0 0.00 0.00 0.00 73 1016.4
20190921011016 41 270 0.0 1.0 0.00 0.00 0.00 72 1016.4
20190921010023 41 0.0 0.0 0.00 0.00 0.00 72 1016.8
20190921005018 41 276 0.0 0.0 0.00 0.00 0.00 72 1016.8
20190921004024 41 247 0.0 1.0 0.00 0.00 0.00 71 1016.7
20190921003020 41 300 0.0 1.0 0.00 0.00 0.00 71 1016.7
20190921002016 42 312 0.0 0.0 0.00 0.00 0.00 71 1016.9
20190921001026 42 266 0.0 1.0 0.00 0.00 0.00 71 1017.0
20190921000019 42 258 0.0 0.0 0.00 0.00 0.00 70 1016.8
20190920235015 42 270 0.0 0.0 0.00 0.00 0.00 70 1016.8
20190920234023 43 282 0.0 1.0 0.00 0.00 0.00 70 1016.9
20190920233019 43 0.0 0.0 0.00 0.00 0.00 69 1016.9
20190920232017 43 0.0 0.0 0.00 0.00 0.00 69 1017.0
20190920231023 43 309 0.0 0.0 0.00 0.00 0.00 69 1017.0
20190920230019 44 283 0.0 1.0 0.00 0.00 0.00 68 1017.2
20190920225016 44 0.0 0.0 0.00 0.00 0.00 68 1017.2
20190920224023 44 0.0 0.0 0.00 0.00 0.00 68 1017.3
20190920223019 44 303 0.0 0.0 0.00 0.00 0.00 67 1017.3
20190920222026 45 254 0.0 1.0 0.00 0.00 0.00 66 1017.4
20190920221021 45 247 0.0 0.0 0.00 0.00 0.00 65 1017.4
20190920215523 45 323 0.0 0.0 0.00 0.00 0.00 64 1017.7
20190920214519 46 267 0.0 1.0 0.00 0.00 0.00 64 1017.6
20190920213515 46 317 0.0 1.0 0.00 0.00 0.00 63 1017.7
20190920212522 47 247 0.0 1.0 0.00 0.00 0.00 62 1017.7
20190920211520 47 254 0.0 1.0 0.00 0.00 0.00 62 1017.8
20190920210518 47 267 0.0 2.0 0.00 0.00 0.00 61 1017.7
20190920205524 48 317 0.0 1.0 0.00 0.00 0.00 60 1017.7
20190920204519 48 290 0.0 0.0 0.00 0.00 0.00 60 1017.8
20190920203525 49 272 0.0 2.0 0.00 0.00 0.00 58 1018.2
20190920202522 50 277 0.0 1.0 0.00 0.00 0.00 57 1018.2
20190920201519 50 259 0.0 0.0 0.00 0.00 0.00 55 1018.2
20190920200515 51 263 0.0 1.0 0.00 0.00 0.00 55 1018.2
20190920195523 51 277 0.0 1.0 0.00 0.00 0.00 54 1018.2
20190920194519 52 273 0.0 0.0 0.00 0.00 0.00 52 1018.2
20190920193515 53 270 0.0 1.0 0.00 0.00 0.00 51 1018.2
20190920192523 53 252 0.0 0.0 0.00 0.00 0.00 50 1018.2
20190920191519 54 231 0.0 0.0 0.00 0.00 0.00 49 1018.2
20190920190515 54 73 0.0 1.0 0.00 0.00 0.00 48 1018.2
20190920185523 55 100 0.0 1.0 0.00 0.00 0.00 47 1018.1
20190920184520 55 83 1.0 2.0 0.00 0.00 0.00 47 1018.2
20190920183516 56 120 1.0 2.0 0.00 0.00 0.00 46 1018.1
20190920182524 56 356 1.0 2.0 0.00 0.00 0.00 45 1018.1
20190920181519 57 47 1.0 2.0 0.00 0.00 0.00 44 1018.0
20190920180515 57 36 1.0 4.0 0.00 0.00 0.00 43 1018.0
20190920175522 58 90 1.0 3.0 0.00 0.00 0.00 42 1017.9
20190920174518 59 17 1.0 2.0 0.00 0.00 0.00 41 1017.9
20190920173525 59 63 1.0 4.0 0.00 0.00 0.00 40 1018.0
20190920172521 60 49 1.0 3.0 0.00 0.00 0.00 39 1018.0
20190920171516 61 104 1.0 1.0 0.00 0.00 0.00 38 1018.0
20190920170524 61 75 1.0 2.0 0.00 0.00 0.00 37 1018.1
20190920165520 62 59 1.0 4.0 0.00 0.00 0.00 35 1017.9
20190920164517 62 72 2.0 4.0 0.00 0.00 0.00 33 1018.0
20190920163525 63 58 2.0 2.0 0.00 0.00 0.00 32 1018.0
20190920162520 63 117 2.0 3.0 0.00 0.00 0.00 31 1018.0
20190920161517 64 54 2.0 4.0 0.00 0.00 0.00 29 1018.0
20190920160523 64 96 2.0 4.0 0.00 0.00 0.00 29 1018.0
20190920155519 64 76 2.0 4.0 0.00 0.00 0.00 28 1017.9
20190920154516 64 15 2.0 3.0 0.00 0.00 0.00 28 1017.9
20190920153523 65 58 2.0 4.0 0.00 0.00 0.00 29 1017.9
20190920152518 65 32 2.0 4.0 0.00 0.00 0.00 30 1017.9
20190920151526 65 63 3.0 3.0 0.00 0.00 0.00 28 1017.8
20190920150521 65 92 2.0 6.0 0.00 0.00 0.00 28 1017.8
20190920145518 66 8 2.0 4.0 0.00 0.00 0.00 29 1017.7
20190920144523 66 36 3.0 7.0 0.00 0.00 0.00 30 1017.8
20190920143519 67 37 3.0 4.0 0.00 0.00 0.00 27 1017.9
20190920142525 67 24 2.0 3.0 0.00 0.00 0.00 27 1017.9
20190920141521 67 89 3.0 4.0 0.00 0.00 0.00 27 1017.9
20190920140518 68 107 3.0 5.0 0.00 0.00 0.00 27 1018.0
20190920135525 68 40 3.0 6.0 0.00 0.00 0.00 29 1018.4
20190920134521 68 53 2.0 4.0 0.00 0.00 0.00 28 1018.4
20190920133517 68 341 3.0 8.0 0.00 0.00 0.00 29 1018.5
20190920132523 68 355 2.0 4.0 0.00 0.00 0.00 29 1018.5
20190920131519 69 65 2.0 8.0 0.00 0.00 0.00 29 1018.5
20190920130525 68 34 2.0 5.0 0.00 0.00 0.00 30 1018.5
20190920125521 68 70 2.0 5.0 0.00 0.00 0.00 30 1018.7
20190920124518 68 102 3.0 5.0 0.00 0.00 0.00 30 1018.7
20190920123515 68 4 2.0 5.0 0.00 0.00 0.00 29 1018.8
20190920122523 69 50 2.0 3.0 0.00 0.00 0.00 30 1018.9
20190920121520 69 84 2.0 6.0 0.00 0.00 0.00 31 1019.1
20190920120525 68 35 2.0 5.0 0.00 0.00 0.00 32 1019.2
20190920115521 68 49 2.0 4.0 0.00 0.00 0.00 32 1019.4
20190920114518 68 292 1.0 2.0 0.00 0.00 0.00 32 1019.4
20190920113526 68 106 1.0 5.0 0.00 0.00 0.00 32 1019.5
20190920112523 67 105 2.0 2.0 0.00 0.00 0.00 34 1019.6
20190920111521 67 47 2.0 5.0 0.00 0.00 0.00 34 1019.9
20190920110518 67 49 2.0 3.0 0.00 0.00 0.00 35 1020.0
20190920105515 66 33 1.0 3.0 0.00 0.00 0.00 35 1020.1
20190920104522 66 22 1.0 4.0 0.00 0.00 0.00 34 1020.1
20190920103519 65 114 2.0 3.0 0.00 0.00 0.00 33 1020.5
20190920102515 65 65 1.0 5.0 0.00 0.00 0.00 36 1020.5
20190920101521 63 99 1.0 3.0 0.00 0.00 0.00 39 1020.5
20190920100517 63 30 2.0 2.0 0.00 0.00 0.00 39 1020.6
20190920095522 62 67 2.0 3.0 0.00 0.00 0.00 39 1020.9
20190920094518 61 32 1.0 3.0 0.00 0.00 0.00 42 1020.9
20190920093525 61 49 1.0 2.0 0.00 0.00 0.00 43 1020.9
20190920092521 60 35 1.0 3.0 0.00 0.00 0.00 44 1020.9
20190920091528 58 17 2.0 3.0 0.00 0.00 0.00 46 1020.9
20190920090524 57 75 2.0 4.0 0.00 0.00 0.00 48 1020.9
20190920085519 56 39 1.0 3.0 0.00 0.00 0.00 50 1021.0
20190920084526 54 28 1.0 3.0 0.00 0.00 0.00 53 1020.9
20190920083521 52 38 2.0 2.0 0.00 0.00 0.00 55 1020.9
20190920082518 51 102 2.0 4.0 0.00 0.00 0.00 57 1020.8
20190920081523 49 65 1.0 4.0 0.00 0.00 0.00 60 1020.5
20190920080519 47 30 0.0 4.0 0.00 0.00 0.00 65 1020.5
20190920075516 46 46 0.0 0.0 0.00 0.00 0.00 68 1020.5
20190920074524 45 10 0.0 2.0 0.00 0.00 0.00 69 1020.4
20190920073521 44 32 0.0 1.0 0.00 0.00 0.00 71 1020.4
20190920072517 43 327 0.0 1.0 0.00 0.00 0.00 73 1020.4
20190920071525 42 260 1.0 1.0 0.00 0.00 0.00 73 1020.3
20190920070521 41 317 0.0 1.0 0.00 0.00 0.00 74 1020.3
20190920065517 40 266 0.0 1.0 0.00 0.00 0.00 75 1020.7
20190920064524 40 0.0 0.0 0.00 0.00 0.00 76 1020.7